Back to catalog

USA 410

AliveMilitaryVLEO
NORAD 61031·PAYLOAD·🇺🇸 United States

Launched Sep 6, 2024 from Vandenberg Space Force Base

Loading…

Next Passes (next 24 hours)

TLE

StaleSource: Mike McCants

Epoch: Aug 25, 2026, 22:33 UTC

1 61031U 24160L   26237.94015148 0.00000000  00000-0  00000-0 0    09
2 61031  70.0267 181.8094 0003000 257.6002 102.3998 14.96713400    08

Track USA 410 in real time with AllMySat

Download on the App Store